     2.10           OBSERVATION DATA    G (GPS)             RINEX VERSION / TYPE
teqc 2002Apr3 Duncan Agnew 20050511 23:58:22UTC             PGM / RUN BY / DATE
OSX 5.3|G3|cc|OSX 5.3+|G3+                                  COMMENT
BIT 2 OF LLI FLAGS DATA COLLECTED UNDER A/S CONDITION       COMMENT
C 611 1941                                                  MARKER NAME
6892                                                        MARKER NUMBER
Juan Vargas Nolte Engineering                               OBSERVER / AGENCY
220136892 TRIMBLE 4800 NP 1.20 / SP 1.43                    REC # / TYPE / VERS
N/A TRM4800                                                 ANT # / TYPE
 -2302773.0000 -4825898.0000  3465045.0000                  APPROX POSITION XYZ
        2.0000        0.0000        0.0000                  ANTENNA: DELTA H/E/N
     1     1                                                WAVELENGTH FACT L1/2
     7    C1    L1    L2    P1    P2    S1    S2            # / TYPES OF OBSERV
SNR is mapped to RINEX snr flag value [1-9]                 COMMENT
L1: 3 -> 1; 8 -> 5; 40 -> 9                                 COMMENT
L2: 1 -> 1; 5 -> 5; 60 -> 9                                 COMMENT
  2004     7     7    16     1    0.0000000     GPS         TIME OF FIRST OBS
                                                            END OF HEADER
 04  7  7 16  1  0.0000000  0  8G 3G 6G14G15G18G21G22G26
  22958896.0924     -40612.29359    -27156.03057                  22958894.9994
        45.5004         32.0004
  23425303.6534     179820.53159    120178.52957                  23425303.0044
        43.5004         27.0004
  23439214.6074     -93973.93759    -62677.03357                  23439213.8844
        44.0004         28.0004
  21303090.5214     -32110.81659    -21417.43158                  21303089.3804
        50.2504         40.2504
  20767124.5584      76276.84859     50645.65558                  20767121.3744
        51.5004         43.7504
  20689965.4584      62895.66859     41727.59958                  20689961.8604
        51.7504         43.7504
  21089111.8644      12589.76259      8520.86658                  21089108.1194
        52.0004         43.0004
  23857412.4464     175457.71559    118612.68756                  23857411.4404
        37.5004         22.5004
 04  7  7 16  1 10.0000000  0  8G 3G 6G14G15G18G21G22G26
  22956828.9804     -51472.67249    -35618.68647                  22956828.2674
        44.7504         32.0004
  23434196.5674     226553.87149    156594.10247                  23434196.6014
        42.5004         27.2504
  23434491.1554    -118797.42649    -82020.01347                  23434489.7714
        44.0004         27.5004
  21301449.0934     -40737.67649    -28139.66648                  21301447.5684
        50.0004         40.7504
  20770844.3274      95823.07049     65876.46248                  20770840.2504
        52.0004         44.2504
  20693024.0444      78966.66449     54250.43848                  20693020.1144
        52.7504         44.2504
  21089677.3214      15559.24649     10834.74248                  21089673.0544
        52.7504         43.2504
  23866141.9814     221329.19549    154356.64546                  23866141.0954
        38.7504         23.0004
 04  7  7 16  1 20.0000000  0  8G 3G 6G14G15G18G21G22G26
  22954756.5134     -62362.51649    -44104.25547                  22954755.3324
        45.0004         31.7504
  23443078.6784     273226.86749    192962.62747                  23443078.0054
        42.5004         26.5004
  23429756.6424    -143678.92249   -101408.17547                  23429754.5514
        44.5004         28.5004
  21299796.0544     -49423.46949    -34907.81748                  21299794.6494
        51.5004         40.5004
  20774554.2594     115321.23849     81069.84248                  20774551.1134
        52.5004         44.0004
  20696074.1084      94996.07049     66740.88048                  20696070.6444
        52.5004         44.2504
  21090234.1174      18486.22349     13115.50048                  21090229.8834
        52.7504         43.2504
  23874863.3804     267157.01649    190066.59447                  23874861.9004
        40.5004         26.5004
 04  7  7 16  1 30.0000000  0  8G 3G 6G14G15G18G21G22G26
  22952685.4404     -73247.72749    -52586.25347                  22952684.0414
        44.5004         31.0004
  23451954.3864     319873.44149    229310.57847                  23451954.4724
        41.7504         26.0004
  23425016.7054    -168584.30949   -120814.97147                  23425015.4834
        44.5004         27.2504
  21298138.5724     -58134.11349    -41695.32948                  21298136.9684
        50.2504         40.0004
  20778261.9794     134805.40649     96252.30648                  20778258.9464
        51.0004         43.5004
  20699122.9954     111017.84849     79225.37948                  20699119.5914
        52.5004         43.7504
  21090789.7194      21404.61349     15389.56548                  21090784.9264
        52.2504         43.0004
  23883581.4534     312974.94549    225768.88947                  23883580.8934
        39.5004         26.2504
 04  7  7 16  1 40.0000000  0  8G 3G 6G14G15G18G21G22G26
  22950618.9494     -84108.47749    -61049.16447                  22950617.7104
        45.0004         31.2504
  23460829.5544     366513.30149    265653.27047                  23460830.1894
        41.5004         26.0004
  23420276.9754    -193493.73449   -140224.88847                  23420275.3294
        44.5004         28.5004
  21296479.9284     -66849.79749    -48486.75948                  21296477.9584
        49.5004         40.5004
  20781970.7314     154295.24249    111439.18648                  20781967.8224
        51.2504         43.7504
  20702174.3314     127051.91449     91719.44048                  20702170.7954
        52.5004         43.7504
  21091347.5104      24334.16049     17672.32848                  21091342.7394
        52.5004         43.0004
  23892302.1764     358802.61349    261478.70147                  23892301.8094
        39.5004         26.5004
 04  7  7 16  1 50.0000000  0  8G 3G 6G14G15G18G21G22G26
  22948559.2804     -94931.34849    -69482.56847                  22948558.6914
        43.5004         30.7504
  23469706.4334     413159.64549    302001.02347                  23469706.6424
        41.0004         26.0004
  23415538.5854    -218393.66449   -159627.44347                  23415537.3224
        44.5004         28.0004
  21294823.3424     -75557.07449    -55271.65248                  21294821.8234
        50.5004         40.0004
  20785683.3154     173804.01249    126640.81748                  20785679.8634
        52.0004         43.5004
  20705230.2704     143111.53149    104233.43248                  20705226.4524
        53.0004         43.2504
  21091909.1304      27288.12949     19974.12248                  21091905.2774
        52.7504         42.5004
  23901027.4704     404653.28949    297206.48847                  23901027.6464
        40.2504         25.7504
 04  7  7 16  2  0.0000000  0  8G 3G 6G14G15G18G21G22G26
  22946508.2794    -105708.52349    -77880.35847                  22946507.6024
        44.7504         31.2504
  23478585.5744     459819.99249    338359.69947                  23478586.2274
        41.5004         27.0004
  23410803.9164    -243276.40649   -179016.56147                  23410802.1164
        44.5004         29.2504
  21293168.9714     -84248.13749    -62043.90348                  21293167.8094
        50.7504         41.0004
  20789400.7324     193339.41449    141863.20148                  20789397.5844
        52.0004         44.2504
  20708292.6324     159204.53549    116773.42748                  20708289.0754
        52.5004         43.7504
  21092477.5314      30274.30149     22301.01448                  21092473.5864
        52.7504         43.5004
  23909758.5214     450534.61349    332958.15747                  23909758.7144
        38.5004         26.7504
 04  7  7 16  2 10.0000000  0  8G 3G 6G14G15G18G21G22G26
  22944466.0234    -116441.78149    -86243.92947                  22944464.8044
        45.2504         31.2504
  23487467.2734     506492.63349    374727.95146                  23487467.2174
        41.0004         25.2504
  23406071.1564    -268143.60249   -198393.57047                  23406069.7394
        44.5004         29.5004
  21291517.9084     -92924.77049    -68804.91548                  21291516.6334
        49.7504         40.2504
  20793122.7944     212899.61349    157104.90548                  20793119.4244
        51.7504         44.2504
  20711361.0384     175329.14849    129338.04848                  20711357.9544
        52.7504         43.7504
  21093051.7004      33290.88349     24651.59648                  21093047.6604
        52.5004         43.2504
  23918494.2994     496444.70749    368732.23047                  23918495.0324
        39.0004         26.0004
 04  7  7 16  2 20.0000000  0  8G 3G 6G14G15G18G21G22G26
  22942432.2854    -127127.17649    -94570.19747                  22942431.5264
        43.2504         31.7504
  23496352.4644     553181.22349    411108.60646                  23496352.0804
        40.5004         25.0004
  23401342.7954    -292991.36349   -217755.43847                  23401341.5644
        44.7504         29.0004
  21289870.2894    -101583.05949    -75551.64348                  21289868.9314
        49.7504         40.7504
  20796850.5974     232488.30949    172368.82948                  20796847.1294
        52.0004         44.0004
  20714435.9264     191489.24249    141930.32048                  20714432.4004
        52.5004         44.0004
  21093632.0244      36341.61349     27028.79048                  21093628.0784
        52.2504         43.2504
  23927237.7424     542387.17249    404531.51647                  23927237.6494
        39.2504         26.5004
 04  7  7 16  2 30.0000000  0  8G 3G 6G14G15G18G21G22G26
  22940407.5874    -137767.16849   -102861.12347                  22940406.9374
        44.0004         31.5004
  23505239.4574     599883.04349    447499.59347                  23505238.6464
        41.2504         27.5004
  23396618.5444    -317822.07849   -237104.04347                  23396616.4334
        44.5004         28.5004
  21288225.8464    -110225.56249    -82286.03948                  21288223.9854
        50.2504         40.7504
  20800583.0074     252102.86349    187652.88648                  20800579.7094
        51.0004         44.5004
  20717517.7604     207682.13349    154548.15148                  20717514.0384
        53.2504         44.0004
  21094218.7424      39423.84449     29430.53748                  21094214.5244
        53.2504         43.0004
  23935985.6824     588359.34849    440353.94246                  23935985.8374
        38.7504         25.5004
 04  7  7 16  2 40.0000000  0  8G 3G 6G14G15G18G21G22G26
  22938392.1444    -148361.55149   -111116.49047                  22938390.6524
        43.7504         30.5004
  23514128.7644     646598.29749    483901.06747                  23514128.3904
        40.7504         26.7504
  23391895.9884    -342635.48449   -256439.14447                  23391894.5334
        44.2504         29.0004
  21286584.2094    -118852.02049    -89007.94848                  21286582.1824
        50.5004         40.5004
  20804320.5454     271743.50449    202957.28848                  20804316.6614
        51.5004         44.5004
  20720605.2324     223908.12949    167191.78448                  20720601.6114
        52.5004         44.0004
  21094811.2244      42537.80949     31857.01148                  21094807.0554
        52.7504         43.2504
  23944739.6894     634361.28549    476199.59146                  23944739.4324
        37.2504         24.0004
 04  7  7 16  2 50.0000000  0  8G 3G 6G14G15G18G21G22G26
  22936383.4644    -158914.31649   -119339.41547                  22936382.6834
        43.0004         31.2504
  23523019.6984     693322.77349    520309.71847                  23523019.7054
        41.5004         27.2504
  23387176.4084    -367435.64549   -275763.93847                  23387174.8594
        44.7504         28.5004
  21284944.6614    -127466.49649    -95720.52148                  21284943.2254
        50.5004         41.0004
  20808062.2684     291406.05949    218278.75548                  20808058.6154
        51.7504         44.0004
  20723698.7094     240163.20749    179858.06548                  20723695.1504
        52.0004         44.0004
  21095409.1144      45679.39149     34304.99548                  21095404.9354
        52.7504         43.0004
  23953497.9684     680388.89549    512065.21346                  23953498.3154
        37.7504         25.5004
 04  7  7 16  3  0.0000000  0  8G 3G 6G14G15G18G21G22G26
  22934382.6734    -169426.99649   -127531.11747                  22934382.4564
        43.7504         31.7504
  23531913.1394     740054.65249    556724.13247                  23531912.5744
        41.0004         26.5004
  23382459.9134    -392223.98849   -295079.52647                  23382457.9764
        45.0004         27.2504
  21283307.8964    -136070.48449   -102424.92748                  21283305.9224
        51.0004         40.2504
  20811807.4814     311088.85949    233615.99548                  20811804.1134
        51.7504         44.0004
  20726797.2194     256445.86749    192545.84248                  20726794.2104
        52.2504         44.0004
  21096012.1484      48846.87949     36773.15948                  21096007.9034
        53.7504         43.5004
  23962261.3414     726440.28149    547949.40246                  23962261.4344
        38.5004         24.7504
 04  7  7 16  3 10.0000000  0  8G 3G 6G14G15G18G21G22G26
  22932390.4034    -179899.05549   -135691.16147                  22932389.4604
        43.2504         31.5004
  23540806.6364     786794.27049    593144.59047                  23540807.3164
        41.7504         29.5004
  23377745.4454    -417000.07049   -314385.55247                  23377743.2504
        44.5004         26.7504
  21281672.4584    -144663.60949   -109120.86748                  21281671.0704
        50.2504         40.5004
  20815557.4894     330792.17649    248969.23048                  20815553.4484
        52.0004         44.0004
  20729900.7194     272756.40649    205255.34848                  20729897.6144
        51.7504         43.7504
  21096619.5234      52040.58649     39261.76548                  21096615.3494
        52.7504         43.7504
  23971029.9124     772515.79349    583852.40946                  23971028.9314
        38.7504         24.5004
 04  7  7 16  3 20.0000000  0  8G 3G 6G14G15G18G21G22G26
  22930404.3124    -190335.06249   -143823.10747                  22930403.1654
        44.7504         31.2504
  23549702.8514     833537.13349    629567.53647                  23549701.9584
        43.5004         28.0004
  23373031.9554    -441768.35249   -333685.51547                  23373029.6314
        45.0004         26.2504
  21280038.2654    -153250.34849   -115811.82948                  21280036.6254
        50.5004         40.0004
  20819309.6804     350511.46549    264334.91448                  20819305.8184
        52.5004         44.0004
  20733009.1014     289090.30149    217983.06248                  20733005.6764
        52.5004         43.5004
  21097231.4994      55256.02749     41767.30548                  21097227.3034
        52.7504         43.0004
  23979800.5924     818610.89549    619770.62646                  23979800.9324
        39.0004         24.5004
 04  7  7 16  3 30.0000000  0  8G 3G 6G14G15G18G21G22G26
  22928425.3454    -200733.69149   -151925.94347                  22928424.6914
        44.2504         31.2504
  23558597.8754     880284.30949    665993.89647                  23558598.1524
        41.2504         28.0004
  23368320.3624    -466527.51249   -352978.34247                  23368318.3774
        45.7504         27.2504
  21278406.3894    -161829.42249   -122496.83948                  21278404.2354
        50.2504         40.5004
  20823065.1374     370248.01649    279714.03548                  20823061.6724
        52.7504         44.0004
  20736121.9384     305448.96549    230730.06748                  20736118.3314
        52.2504         43.7504
  21097847.8914      58494.42249     44290.73348                  21097843.8904
        53.2504         43.2504
  23988576.1774     864726.50849    655704.82346                  23988576.5724
        40.5004         25.2504
 04  7  7 16  3 40.0000000  0  8G 3G 6G14G15G18G21G22G26
  22926453.1014    -211098.82849   -160002.65547                  22926452.2384
        45.5004         31.5004
  23567493.8734     927031.63349    702420.34347                  23567494.6504
        43.0004         29.2504
  23363609.5924    -491281.41849   -372267.08047                  23363607.8364
        44.7504         27.7504
  21276774.2374    -170404.82849   -129178.95648                  21276772.4224
        51.5004         40.5004
  20826823.5614     389997.80949    295103.48648                  20826820.0174
        51.7504         44.0004
  20739238.8354     321828.38749    243493.24548                  20739235.6614
        52.5004         44.0004
  21098467.5454      61751.76249     46828.92648                  21098463.6054
        52.7504         43.2504
  23997354.2454     910858.55949    691651.87046                  23997355.8394
        36.0004         25.0004
 04  7  7 16  3 50.0000000  0  8G 3G 6G14G15G18G21G22G26
  22924487.9854    -221424.25849   -168048.44047                  22924487.2924
        44.5004         31.0004
  23576390.8344     973785.22349    738851.65847                  23576391.5284
        42.5004         28.5004
  23358901.2394    -516023.75049   -391546.84947                  23358899.6224
        45.2504         28.2504
  21275143.8554    -178970.18749   -135853.26448                  21275143.1094
        50.2504         40.5004
  20830585.8194     409767.00449    310508.04748                  20830582.2634
        52.7504         44.0004
  20742360.7484     338234.80549    256277.46148                  20742357.3474
        52.5004         43.7504
  21099092.2774      65034.21949     49386.67848                  21099087.9504
        52.5004         43.2504
  24006137.4154     957013.23448    727616.49946                  24006138.6714
        35.7504         24.0004
 04  7  7 16  4  0.0000000  0  8G 3G 6G14G15G18G21G22G26
  22922529.8144    -231716.34449   -176068.24647                  22922529.3174
        44.2504         30.2504
  23585287.7814    1020538.52049    775282.76347                  23585287.7004
        42.0004         26.7504
  23354193.8004    -540761.00449   -410822.59947                  23354192.1974
        45.5004         26.2504
  21273514.9214    -187531.95749   -142524.75948                  21273513.4514
        49.7504         39.7504
  20834349.8954     429548.96149    325922.55848                  20834346.4784
        51.7504         44.0004
  20745487.0414     354661.70349    269077.63248                  20745483.4594
        52.2504         43.5004
  21099720.6504      68335.30149     51958.95848                  21099716.5804
        52.7504         43.2504
  24014922.9394    1003183.96949    763593.64746                  24014924.6394
        36.7504         24.5004
 04  7  7 16  4 10.0000000  0  8G 3G 6G14G15G18G21G22G26
  22920577.6864    -241974.48049   -184061.61347                  22920576.2984
        45.0004         31.0004
  23594184.4904    1067291.96949    811714.01047                  23594184.0714
        42.0004         28.0004
  23349486.9144    -565492.36349   -430093.78647                  23349486.1004
        44.5004         26.7504
  21271886.3484    -196089.53149   -149193.00348                  21271884.7444
        50.7504         39.7504
  20838116.7174     449344.22749    341347.43048                  20838113.5074
        52.0004         44.0004
  20748616.9664     371109.71949    281894.25348                  20748613.5264
        52.2504         43.7504
  21100352.4094      71655.54349     54546.15648                  21100347.8894
        53.0004         43.2504
  24023713.8284    1049371.01649    799583.53847                  24023713.0514
        39.5004         25.7504
 04  7  7 16  4 20.0000000  0  8G 3G 6G14G15G18G21G22G26
  22918632.2044    -252198.96549   -192028.74747                  22918630.8584
        44.0004         30.5004
  23603081.9084    1114045.19549    848145.04447                  23603080.7394
        39.7504         26.5004
  23344782.8454    -590218.18049   -449360.63847                  23344780.5594
        45.0004         27.2504
  21270259.1014    -204643.24649   -155858.22748                  21270257.0904
        51.2504         40.0004
  20841886.0144     469152.32049    356782.31248                  20841882.8544
        51.2504         43.7504
  20751750.5634     387578.50849    294727.08748                  20751747.3694
        52.0004         43.7504
  21100987.7294      74994.48849     57147.93748                  21100983.4024
        52.7504         43.2504
  24032505.0284    1095573.94549    835585.76947                  24032505.7424
        39.0004         26.0004
 04  7  7 16  4 30.0000000  0  8G 3G 6G14G15G18G21G22G26
  22916692.1934    -262390.56249   -199970.26447                  22916690.8684
        44.5004         30.5004
  23611977.9174    1160797.21149    884575.14647                  23611977.8654
        41.0004         28.0004
  23340078.0754    -614939.29749   -468623.83047                  23340076.5824
        44.7504         28.0004
  21268631.5724    -213193.93449   -162521.10048                  21268629.9174
        50.5004         40.0004
  20845657.8784     488972.33249    372226.46848                  20845654.1774
        51.2504         43.5004
  20754888.4874     404067.20749    307575.40948                  20754885.2644
        52.0004         43.7504
  21101626.4324      78351.23849     59763.59148                  21101622.4634
        53.0004         43.2504
  24041300.1034    1141791.83649    871599.71546                  24041300.6404
        40.5004         25.5004
 04  7  7 16  4 40.0000000  0  8G 3G 6G14G15G18G21G22G26
  22914759.8964    -272547.71149   -207884.91147                  22914758.5224
        45.5004         30.7504
  23620874.6064    1207549.34849    921005.35947                  23620873.8874
        40.5004         26.5004
  23335375.2694    -639654.10549   -487882.10747                  23335373.7794
        45.7504         28.7504
  21267005.1344    -221740.02349   -169180.38848                  21267003.7284
        50.7504         40.2504
  20849432.0194     508805.67649    387681.01448                  20849428.3234
        51.0004         44.0004
  20758030.0714     420577.28149    320440.40448                  20758027.0294
        52.2504         43.5004
  21102269.0104      81727.28549     62394.28148                  21102264.8644
        53.0004         43.7504
  24050099.0704    1188026.04349    907626.29347                  24050099.0484
        39.2504         27.5004
 04  7  7 16  4 50.0000000  0  8G 3G 6G14G15G18G21G22G26
  22912834.0544    -282670.39849   -215772.72647                  22912831.8174
        44.7504         31.7504
  23629771.3254    1254301.53149    957435.58347                  23629770.6874
        39.2504         27.5004
  23330673.5184    -664362.56649   -507135.45947                  23330671.8284
        45.5004         29.7504
  21265380.2384    -230281.55949   -175836.12448                  21265378.5554
        51.0004         41.2504
  20853208.6014     528652.27349    403145.90448                  20853205.2144
        52.0004         44.0004
  20761175.9704     437108.74249    333322.04948                  20761172.7724
        51.5004         43.7504
  21102915.0524      85122.48049     65039.88948                  21102910.8014
        52.5004         43.2504
  24058899.8794    1234276.36749    943665.49347                  24058899.5684
        37.7504         27.5004
 04  7  7 16  5  0.0000000  0  8G 3G 6G14G15G18G21G22G26
  22910913.2534    -292760.85949   -223635.41847                  22910911.6254
        45.0004         31.0004
  23638667.5704    1301051.19149    993863.80447                  23638667.2714
        40.0004         26.5004
  23325972.3584    -689066.83249   -526385.51947                  23325970.3424
        45.2504         29.0004
  21263755.0324    -238820.77349   -182490.06748                  21263753.1424
        51.2504         40.5004
  20856987.2474     548509.79749    418619.29748                  20856984.2704
        51.5004         43.5004
  20764325.5124     453659.34849    346218.62448                  20764322.0984
        52.0004         43.7504
  21103564.2324      88534.48849     67698.59248                  21103559.9104
        52.7504         43.5004
  24067703.8104    1280540.34049    979715.32447                  24067703.7144
        39.5004         28.0004
 04  7  7 16  5 10.0000000  0  8G 3G 6G14G15G18G21G22G26
  22908999.3944    -302819.25049   -231473.14347                  22908997.7204
        45.7504         30.7504
  23647562.6634    1347798.08649   1030289.96546                  23647562.4014
        39.2504         24.2504
  23321272.4464    -713767.05549   -545632.45547                  23321271.0094
        45.7504         29.2504
  21262130.4184    -247357.84849   -189142.31848                  21262128.5934
        51.0004         39.7504
  20860768.1284     568377.93049    434100.95048                  20860764.8964
        52.0004         43.2504
  20767478.6334     470228.86349    359129.92448                  20767475.2684
        52.0004         43.2504
  21104216.5734      91963.09449     70370.23748                  21104212.3184
        52.0004         43.2504
  24076509.6614    1326817.68449   1015775.59147                  24076509.9354
        41.0004         27.5004
 04  7  7 16  5 20.0000000  0  8G 3G 6G14G15G18G21G22G26
  22907090.5314    -312849.27049   -239288.72047                  22907088.9954
        45.0004         31.5004
  23656457.7104    1394538.53149   1066711.05746                  23656457.4644
        37.5004         25.2504
  23316571.8204    -738466.85949   -564879.02847                  23316570.0154
        45.7504         29.0004
  21260505.6614    -255896.38749   -195795.72948                  21260503.5544
        50.7504         40.5004
  20864550.1694     588252.97749    449588.00548                  20864546.7694
        51.5004         43.5004
  20770635.0344     486813.67249    372053.14448                  20770631.1094
        52.5004         43.5004
  21104871.4514      95404.49249     73051.85748                  21104867.3784
        53.0004         43.2504
  24085317.2344    1373104.53549   1051843.23947                  24085317.8594
        40.0004         26.5004
 04  7  7 16  5 30.0000000  0  8G 3G 6G14G15G18G21G22G26
  22905188.4044    -322847.30949   -247079.40447                  22905186.9704
        44.7504         31.5004
  23665351.4074    1441275.67249   1103129.51746                  23665351.1004
        38.5004         25.0004
  23311872.6764    -763162.62549   -584122.50647                  23311870.7574
        45.5004         29.5004
  21258880.9734    -264432.87949   -202447.52948                  21258879.0874
        51.0004         40.0004
  20868334.3094     608138.34849    465083.08248                  20868330.6104
        52.0004         43.2504
  20773793.6864     503417.16849    384990.94048                  20773790.8114
        52.5004         43.5004
  21105529.4004      98862.14149     75746.12848                  21105525.0804
        52.7504         43.2504
  24094129.0984    1419404.29349   1087920.95047                  24094127.8634
        39.7504         26.2504
 04  7  7 16  5 40.0000000  0  8G 3G 6G14G15G18G21G22G26
  22903291.7744    -332813.10549   -254844.95347                  22903290.7534
        46.7504         32.0004
  23674245.4934    1488009.70349   1139545.63247                  23674244.8244
        39.0004         26.2504
  23307173.4834    -787854.14549   -603362.62247                  23307172.7824
        45.0004         31.2504
  21257257.0194    -272967.01649   -209097.50548                  21257255.2774
        51.0004         40.7504
  20872120.2744     628034.15649    480586.31148                  20872117.0004
        51.7504         44.0004
  20776957.5104     520039.68049    397943.53348                  20776954.0484
        52.5004         44.0004
  21106190.9334     102336.26649     78453.23748                  21106186.1424
        54.0004         43.7504
  24102941.2944    1465716.96549   1124008.74946                  24102941.5024
        39.5004         24.5004
 04  7  7 16  5 50.0000000  0  8G 3G 6G14G15G18G21G22G26
  22901401.3534    -342746.23849   -262585.04747                  22901400.3544
        43.0004         31.2504
  23683137.0604    1534741.12149   1175959.68946                  23683137.1894
        38.2504         23.5004
  23302476.1084    -812540.85949   -622599.00547                  23302474.4704
        45.2504         30.7504
  21255633.7854    -281498.46949   -215745.38648                  21255631.7034
        50.2504         40.2504
  20875908.3364     647940.72749    496097.92248                  20875905.0904
        50.7504         44.0004
  20780124.2164     536681.66449    410911.31548                  20780121.0664
        52.0004         43.5004
  21106854.8834     105827.20749     81173.46148                  21106850.6554
        53.2504         43.5004
  24111756.4784    1512042.89549   1160106.83346                  24111756.8674
        38.7504         24.5004
 04  7  7 16  6  0.0000000  0  8G 3G 6G14G15G18G21G22G26
  22899517.3544    -352646.61749   -270299.63947                  22899516.0574
        44.5004         31.7504
  23692029.4804    1581469.46149   1212371.33846                  23692028.7654
        39.5004         24.7504
  23297779.4144    -837222.78149   -641831.66147                  23297778.0514
        45.5004         30.0004
  21254010.4454    -290027.19949   -222391.14448                  21254008.6274
        50.7504         40.5004
  20879698.1064     667857.96549    511617.84548                  20879695.4174
        52.5004         44.0004
  20783295.1574     553343.02049    423894.17748                  20783291.5524
        52.5004         44.0004
  21107522.5854     109334.85549     83906.68948                  21107518.1524
        53.5004         44.0004
  24120575.4764    1558381.84049   1196215.09447                  24120575.1454
        38.5004         27.0004
 04  7  7 16  6 10.0000000  0  8G 3G 6G14G15G18G21G22G26
  22897639.1064    -362516.50049   -277990.46547                  22897638.0194
        45.7504         32.0004
  23700920.1304    1628192.40649   1248778.78046                  23700920.4274
        37.2504         25.5004
  23293082.4684    -861902.12549   -661062.31747                  23293081.6314
        45.5004         30.7504
  21252387.7674    -298555.45749   -229036.53748                  21252385.7324
        50.7504         40.7504
  20883490.2084     687783.53549    527144.25748                  20883486.9434
        51.5004         44.0004
  20786468.2034     570021.45749    436890.35248                  20786464.8104
        52.2504         43.5004
  21108192.9804     112856.91849     86651.15348                  21108188.6674
        53.0004         43.7504
  24129395.9444    1604731.48449   1232331.65547                  24129395.5624
        39.5004         26.5004
 04  7  7 16  6 20.0010000  0  8G 3G 6G14G15G18G21G22G26
  22895767.3384    -372354.52749   -285656.44947                  22895765.9754
        43.2504         31.5004
  23709812.8204    1674917.03549   1285187.51446                  23709811.7964
        38.7504         25.0004
  23288387.2364    -886578.89149   -680290.96147                  23288385.7974
        44.2504         30.2504
  21250765.3424    -307081.69149   -235680.36448                  21250763.1974
        50.7504         41.0004
  20887284.3994     707721.58249    542680.39048                  20887280.8274
        51.5004         43.5004
  20789646.2364     586721.00049    449902.98248                  20789642.4334
        51.7504         43.0004
  21108866.3494     116396.01649     89408.90348                  21108862.2144
        52.7504         44.0004
  24138218.9414    1651098.56349   1268461.81047                  24138218.8134
        40.2504         26.7504
 04  7  7 16  6 30.0010000  0  8G 3G 6G14G15G18G21G22G26
  22893900.6854    -382160.41349   -293297.36247                  22893899.6304
        42.7504         32.2504
  23718702.0194    1721631.87149   1321588.70246                  23718701.8794
        40.7504         25.5004
  23283691.7334    -911249.88349   -699515.10447                  23283691.1944
        45.0004         31.0004
  21249143.4564    -315606.01249   -242322.69048                  21249141.6604
        51.5004         41.0004
  20891079.8634     727666.36349    558221.76748                  20891076.3504
        51.5004         44.0004
  20792827.3394     603436.61349    462928.13248                  20792823.8354
        52.0004         43.7504
  21109542.2774     119949.57449     92177.90248                  21109537.8834
        53.5004         43.7504
  24147043.4774    1697471.96149   1304596.91547                  24147043.3194
        40.2504         27.0004
 04  7  7 16  6 40.0010000  0  8G 3G 6G14G15G18G21G22G26
  22892041.0354    -391934.62149   -300913.65347                  22892040.4744
        44.0004         31.0004
  23727591.1274    1768342.11349   1357986.22147                  23727590.5424
        40.0004         25.7504
  23278998.1304    -935917.05149   -718736.26547                  23278997.0494
        45.0004         30.2504
  21247521.6504    -324128.70749   -248963.74148                  21247519.6354
        51.5004         40.0004
  20894876.9504     747620.32049    573770.30948                  20894873.9494
        51.0004         43.2504
  20796011.3984     620170.35549    475967.40748                  20796008.0634
        52.0004         43.0004
  21110221.5794     123518.38349     94958.80348                  21110217.1644
        53.0004         43.2504
  24155870.1894    1743856.54749   1340740.71047                  24155870.4164
        41.2504         26.0004
 04  7  7 16  6 50.0010000  0  8G 3G 6G14G15G18G21G22G26
  22890187.5724    -401675.52749   -308503.96847                  22890186.5624
        44.2504         31.7504
  23736477.9264    1815049.19949   1394381.31547                  23736478.3574
        39.0004         27.0004
  23274305.1024    -960578.61749   -737953.06947                  23274304.0264
        45.5004         30.2504
  21245899.9594    -332648.18049   -255602.27348                  21245898.4004
        51.0004         40.5004
  20898675.9774     767584.94549    589327.16348                  20898672.5904
        52.5004         44.0004
  20799199.5464     636923.86349    489022.08848                  20799196.4814
        52.2504         43.7504
  21110903.5504     127104.07849     97752.85948                  21110899.4894
        53.2504         43.7504
  24164699.9224    1790253.92249   1376894.46847                  24164698.8554
        41.7504         26.0004
 04  7  7 16  7  0.0010000  0  8G 3G 6G14G15G18G21G22G26
  22888340.1364    -411384.52049   -316069.44647                  22888339.0754
        43.2504         32.2504
  23745366.0124    1861751.43049   1430772.60447                  23745365.8934
        40.5004         26.7504
  23269613.4304    -985236.11349   -757166.68347                  23269611.5554
        45.7504         30.2504
  21244279.3014    -341165.85249   -262239.43548                  21244277.1214
        50.5004         40.0004
  20902476.9664     787558.70749    604891.12048                  20902473.8744
        51.0004         44.0004
  20802391.4094     653695.70749    502091.04548                  20802387.9344
        51.7504         43.7504
  21111589.0764     130705.06649    100558.81848                  21111584.7634
        53.2504         43.5004
  24173530.2734    1836662.28149   1413056.79947                  24173530.0424
        42.0004         26.7504
 04  7  7 16  7 10.0010000  0  8G 3G 6G14G15G18G21G22G26
  22886498.4154    -421063.07849   -323611.18547                  22886497.1294
        44.5004         32.7504
  23754252.0654    1908447.41849   1467159.07347                  23754251.8654
        40.0004         27.0004
  23264921.7214   -1009890.88349   -776378.17947                  23264919.6784
        45.5004         30.5004
  21242658.4374    -349683.18049   -268876.31848                  21242656.6964
        51.0004         40.7504
  20906279.1934     807540.01249    620460.95648                  20906275.6114
        51.5004         44.5004
  20805585.8494     670484.41049    515173.15848                  20805582.8094
        52.0004         44.0004
  21112276.8384     134319.75849    103375.46148                  21112272.4844
        53.5004         44.2504
  24182363.8654    1883080.16049   1449226.58847                  24182363.3184
        41.7504         27.0004
 04  7  7 16  7 20.0010000  0  8G 3G 6G14G15G18G21G22G26
  22884662.7624    -430709.46949   -331127.83847                  22884661.6284
        43.5004         32.7504
  23763137.5804    1955138.74649   1503541.88547                  23763136.9584
        41.7504         26.7504
  23260230.4664   -1034541.10949   -795586.14547                  23260229.4324
        45.0004         30.2504
  21241038.3624    -358198.44949   -275511.58548                  21241036.6184
        51.2504         41.0004
  20910083.2564     827530.52049    636037.97148                  20910080.1014
        50.7504         44.5004
  20808784.1254     687291.59849    528269.65348                  20808780.6624
        52.0004         43.7504
  21112967.6714     137949.82449    106204.09448                  21112963.8324
        53.2504         43.7504
  24191198.6064    1929509.08649   1485404.91747                  24191198.4424
        41.0004         26.0004
 04  7  7 16  7 30.0010000  0  8G 3G 6G14G15G18G21G22G26
  22882833.4034    -440322.30549   -338618.36047                  22882831.9694
        42.5004         32.0004
  23772020.6624    2001826.18849   1539921.66147                  23772021.1594
        41.0004         27.0004
  23255540.9654   -1059185.51649   -814789.58847                  23255539.3334
        45.2504         29.0004
  21239418.1704    -366710.29749   -282144.18948                  21239416.1044
        51.2504         40.5004
  20913889.3724     847531.41049    651623.07848                  20913885.8314
        51.0004         44.0004
  20811986.3144     704118.61349    541381.60948                  20811982.8694
        52.5004         43.2504
  21113661.3194     141596.49249    109045.64948                  21113657.1454
        53.7504         43.0004
  24200035.8694    1975950.21149   1521592.77346                  24200036.0034
        40.7504         25.2504
 04  7  7 16  7 40.0010000  0  8G 3G 6G14G15G18G21G22G26
  22881010.3204    -449901.84449   -346082.93347                  22881008.9034
        44.2504         32.0004
  23780904.6784    2048509.69949   1576298.37347                  23780904.4614
        38.5004         27.0004
  23250852.2194   -1083824.30549   -833988.63247                  23250850.7434
        45.5004         29.7504
  21237799.5954    -375218.91449   -288774.28048                  21237797.3274
        51.2504         40.2504
  20917697.2984     867542.34049    667216.00948                  20917693.9904
        51.7504         43.5004
  20815192.1594     720965.25449    554508.84548                  20815188.9184
        52.0004         43.5004
  21114358.7044     145259.46149    111899.90848                  21114354.3474
        53.2504         43.2504
  24208875.1034    2022403.13349   1557789.80046                  24208875.1184
        40.2504         23.0004
 04  7  7 16  7 50.0010000  0  8G 3G 6G14G15G18G21G22G26
  22879193.5764    -459448.90649   -353522.20747                  22879192.2974
        43.7504         31.5004
  23789787.5964    2095188.42249   1612671.34247                  23789787.8484
        40.5004         26.7504
  23246165.0964   -1108458.18749   -853183.84647                  23246163.2754
        45.2504         30.0004
  21236180.5404    -383725.21549   -295402.56048                  21236178.3164
        50.7504         40.0004
  20921506.8274     887562.33649    682816.00248                  20921503.6444
        51.2504         43.5004
  20818401.6514     737830.59049    567650.65348                  20818397.8574
        52.2504         43.5004
  21115058.5064     148937.80149    114766.15248                  21115054.4564
        53.0004         43.0004
  24217717.7924    2068866.73049   1593995.23846                  24217716.7284
        41.2504         24.0004
 04  7  7 16  8  0.0010000  0  8G 3G 6G14G15G18G21G22G26
  22877383.6134    -468962.35949   -360935.28347                  22877381.9094
        45.2504         33.2504
  23798669.1774    2141862.75449   1649040.91547                  23798669.4684
        38.7504         26.5004
  23241478.0164   -1133086.10549   -872374.42747                  23241476.5084
        46.5004         31.0004
  21234562.2354    -392228.14849   -302028.21348                  21234560.2774
        50.5004         40.5004
  20925318.6324     907592.43849    698423.87248                  20925315.5194
        51.0004         44.0004
  20821614.2954     754715.70349    580807.88848                  20821611.2314
        51.5004         43.5004
  21115761.8514     152632.52049    117645.16248                  21115757.4024
        52.5004         43.5004
  24226561.4014    2115342.00449   1630209.70946                  24226561.1724
        40.7504         25.5004
 04  7  7 16  8 10.0010000  0  8G 3G 6G14G15G18G21G22G26
  22875578.6544    -478444.84049   -368324.23247                  22875577.7654
        43.2504         32.5004
  23807549.8394    2188530.28149   1685405.21447                  23807550.0164
        39.0004         26.0004
  23236792.4254   -1157710.62149   -891562.35747                  23236790.8724
        45.7504         30.7504
  21232944.2524    -400730.29349   -308653.27148                  21232942.3884
        51.0004         40.0004
  20929131.6394     927629.95349    714037.51648                  20929128.6154
        51.5004         44.0004
  20824831.1194     771617.95349    593978.46948                  20824827.9564
        51.7504         43.2504
  21116467.7144     156340.96149    120534.84948                  21116462.9474
        53.0004         43.5004
  24235407.8684    2161826.12549   1666431.10247                  24235407.5404
        41.5004         26.5004
 04  7  7 16  8 20.0010000  0  8G 3G 6G14G15G18G21G22G26
  22873780.9554    -487892.78949   -375686.26047                  22873780.0284
        45.0004         32.7504
  23816430.0664    2235194.48449   1721766.86347                  23816430.1234
        40.5004         27.0004
  23232107.6754   -1182328.19549   -910744.87247                  23232105.8274
        45.7504         31.5004
  21231327.5924    -409228.12949   -315274.94648                  21231325.5924
        51.7504         41.0004
  20932946.3834     947678.22349    729659.54748                  20932943.3484
        52.0004         44.0004
  20828051.4014     788540.83649    607165.13148                  20828048.3294
        51.7504         43.7504
  21117176.3754     160066.49249    123437.86548                  21117171.8284
        53.7504         43.5004
  24244255.0314    2208322.54349   1702662.05447                  24244254.8144
        40.5004         26.2504
 04  7  7 16  8 30.0010000  0  8G 3G 6G14G15G18G21G22G26
  22871990.0884    -497304.51249   -383020.05547                  22871989.5624
        45.7504         32.2504
  23825309.7124    2281856.91049   1758127.16647                  23825309.4584
        41.5004         28.0004
  23227424.6714   -1206937.10249   -929920.64247                  23227423.0294
        45.5004         30.5004
  21229711.4734    -417719.98449   -321891.96348                  21229709.6884
        50.7504         41.0004
  20936764.1504     967738.83649    745291.17948                  20936761.3004
        52.0004         44.5004
  20831276.3614     805486.15249    620369.24948                  20831273.1534
        52.5004         43.5004
  21117888.7094     163810.67649    126355.40648                  21117884.5124
        53.5004         43.7504
  24253106.1564    2254832.72749   1738903.71547                  24253105.9804
        42.2504         25.7504
 04  7  7 16  8 40.0010000  0  8G 3G 6G14G15G18G21G22G26
  22870205.3234    -506681.73449   -390326.98847                  22870204.9394
        44.0004         33.0004
  23834187.9454    2328515.13349   1794484.17747                  23834188.2594
        40.2504         27.5004
  23222743.4184   -1231538.86749   -949090.84247                  23222741.7494
        45.0004         31.2504
  21228096.1974    -426207.46549   -328505.59348                  21228094.5364
        51.0004         41.0004
  20940583.3364     987810.07049    760931.10348                  20940580.5744
        51.5004         44.5004
  20834504.5394     822451.92649    633589.33848                  20834501.3314
        53.0004         43.2504
  21118604.8594     167571.78949    129286.15448                  21118599.8744
        52.5004         43.5004
  24261959.0584    2301354.74649   1775154.60646                  24261959.2554
        40.5004         25.0004
 04  7  7 16  8 50.0010000  0  8G 3G 6G14G15G18G21G22G26
  22868427.9694    -516022.01649   -397605.12747                  22868427.6654
        45.5004         32.7504
  23843066.6614    2375171.72349   1830839.90746                  23843066.6674
        40.0004         25.2504
  23218063.4764   -1256131.28549   -968253.75547                  23218061.4334
        45.2504         31.2504
  21226482.4284    -434688.34049   -335114.06548                  21226480.1164
        51.5004         40.7504
  20944405.4724    1007894.08649    776580.98648                  20944402.2284
        52.0004         44.0004
  20837737.4584     839440.61749    646827.27448                  20837734.1404
        52.0004         43.5004
  21119323.7254     171352.07849    132231.82848                  21119319.5534
        53.2504         43.2504
  24270814.1694    2347890.85249   1811416.50246                  24270814.7084
        39.2504         25.5004
 04  7  7 16  9  0.0010000  0  8G 3G 6G14G15G18G21G22G26
  22866657.4284    -525326.50449   -404855.37147                  22866657.0394
        44.0004         32.5004
  23851944.6404    2421825.79749   1867193.70547                  23851944.6374
        39.7504         26.0004
  23213385.1664   -1280715.35249   -987410.17447                  23213383.6934
        46.2504         30.5004
  21224869.3854    -443163.66049   -341718.19948                  21224867.9194
        51.7504         41.0004
  20948229.2804    1027989.66849    792239.86548                  20948226.0054
        51.7504         44.0004
  20840974.4614     856451.02349    660082.12148                  20840970.8264
        52.5004         43.5004
  21120046.6874     175150.33649    135191.50248                  21120042.4634
        53.0004         43.5004
  24279671.7194    2394439.68449   1847688.30546                  24279672.7414
        39.2504         23.0004
 04  7  7 16  9 10.0010000  0  8G 3G 6G14G15G18G21G22G26
  22864894.3834    -534592.08249   -412075.29047                  22864894.0034
        44.5004         32.5004
  23860822.3704    2468479.98049   1903547.53147                  23860822.5804
        39.5004         27.2504
  23208709.3534   -1305287.94149  -1006557.64547                  23208708.0804
        46.0004         29.5004
  21223258.5214    -451630.37149   -348315.62648                  21223257.0544
        51.5004         40.0004
  20952055.9324    1048099.81649    807910.11548                  20952053.1124
        51.5004         43.5004
  20844215.9744     873486.33649    673356.39048                  20844212.5484
        53.5004         42.7504
  21120773.5814     178969.58249    138167.54348                  21120769.4004
        53.2504         43.2504
  24288533.0324    2441004.19149   1883972.27946                  24288533.4744
        38.0004         21.2504
 04  7  7 16  9 20.0010000  0  8G 3G 6G14G15G18G21G22G26
  22863138.0434    -543819.87949   -419265.78147                  22863138.3074
        45.0004         33.2504
  23869700.3514    2515132.94149   1939900.44947                  23869700.9744
        40.0004         26.2504
  23204035.6024   -1329850.12949  -1025697.00147                  23204033.9034
        45.5004         31.2504
  21221648.8784    -460089.57049   -354907.20748                  21221646.9344
        50.7504         40.5004
  20955885.5674    1068223.25449    823590.71748                  20955882.6094
        51.2504         43.7504
  20847462.3254     890545.27049    686649.06048                  20847458.6214
        52.7504         43.5004
  21121504.1264     182808.59449    141158.99048                  21121499.9734
        53.0004         43.7504
  24297397.3954    2487583.19149   1920267.59446                  24297397.1114
        39.0004         20.5004
 04  7  7 16  9 30.0010000  0  8G 3G 6G14G15G18G21G22G26
  22861390.2844    -553008.71149   -426425.90347                  22861389.5344
        46.2504         34.0004
  23878578.6614    2561785.66849   1976253.17947                  23878578.5064
        39.5004         26.2504
  23199363.7514   -1354400.61349  -1044827.23647                  23199362.0604
        46.2504         32.0004
  21220040.9834    -468540.03549   -361491.98548                  21220038.9434
        52.0004         41.0004
  20959717.5674    1088361.19949    839282.62548                  20959714.5674
        52.0004         43.5004
  20850713.0944     907629.02049    699961.07448                  20850709.9684
        52.5004         43.2504
  21122238.6554     186668.55549    144166.76048                  21122234.1844
        53.2504         43.5004
  24306263.3834    2534177.53149   1956574.80446                  24306263.3804
        39.0004         20.5004
 04  7  7 16  9 40.0010000  0  8G 3G 6G14G15G18G21G22G26
  22859649.0014    -562157.31649   -433554.68447                  22859648.7484
        47.2504         33.5004
  23887455.8854    2608439.45749   2012606.76346                  23887456.2394
        39.5004         24.7504
  23194694.2044   -1378938.27049  -1063947.50247                  23194692.3854
        45.5004         32.2504
  21218434.4904    -476980.60249   -368069.05048                  21218432.3294
        51.5004         41.0004
  20963552.9244    1108514.63749    854986.59848                  20963549.8414
        51.2504         44.0004
  20853968.9924     924738.77049    713293.33248                  20853965.5694
        52.7504         43.5004
  21122977.2774     190550.42249    147191.58948                  21122972.9894
        54.2504         43.7504
  24315133.0904    2580788.32449   1992894.90846                  24315132.8864
        38.2504         21.0004
 04  7  7 16  9 50.0010000  0  7G 3G 6G14G15G18G21G22
  22857915.4454    -571265.91049   -440652.28547                  22857915.4264
        45.7504         34.0004
  23896333.6124    2655093.85549   2048960.78746                  23896334.3844
        39.5004         24.2504
  23190026.6924   -1403463.28949  -1083057.90447                  23190025.3314
        46.0004         30.7504
  21216830.2764    -485411.46549   -374638.55148                  21216828.0364
        50.7504         40.7504
  20967390.5174    1128683.27349    870702.40948                  20967387.2794
        51.5004         44.0004
  20857229.6884     941874.30549    726645.68148                  20857226.1294
        52.2504         43.0004
  21123719.9924     194453.97349    150233.31348                  21123716.2154
        52.5004         43.7504
 04  7  7 16 10  0.0010000  0  7G 3G 6G14G15G18G21G22
  22856190.0614    -580334.37149   -447718.62747                  22856189.5554
        46.5004         34.2504
  23905212.3114    2701748.58249   2085315.04946                  23905212.9784
        39.5004         23.2504
  23185362.4614   -1427975.51649  -1102158.34447                  23185361.8044
        45.5004         31.2504
  21215227.5944    -493832.53149   -381200.42148                  21215225.6804
        51.0004         41.0004
  20971231.2724    1148867.06649    886430.03148                  20971228.2754
        51.7504         43.7504
  20860495.7044     959035.59849    740018.11648                  20860492.0544
        52.0004         43.0004
  21124466.9494     198379.12149    153291.87048                  21124463.0824
        52.2504         43.5004
 04  7  7 16 10 10.0010000  0  7G 3G 6G14G15G18G21G22
  22854472.1134    -589360.87149   -454752.25347                  22854471.5314
        47.5004         33.5004
  23914090.8594    2748405.44949   2121671.00646                  23914091.7344
        40.7504         22.5004
  23180700.6594   -1452472.99649  -1121247.27247                  23180699.4874
        44.5004         30.5004
  21213627.7124    -502241.98449   -387753.22848                  21213625.6744
        52.0004         41.2504
  20975075.5584    1169067.83649    902170.89848                  20975072.4614
        52.2504         43.2504
  20863766.6054     976224.55549    753412.10648                  20863763.1084
        53.0004         43.0004
  21125218.2094     202327.73049    156368.71148                  21125213.9934
        52.5004         43.7504
 04  7  7 16 10 20.0010000  0  7G 3G 6G14G15G18G21G22
  22852762.0834    -598348.11749   -461755.30447                  22852761.4154
        46.7504         34.0004
  23922969.1724    2795061.64149   2158026.44146                  23922969.5674
        40.5004         25.2504
  23176041.0084   -1476958.46949  -1140326.85847                  23176040.0664
        45.5004         31.0004
  21212029.1584    -510642.50449   -394299.09348                  21212026.8994
        51.2504         40.7504
  20978922.3944    1189282.70349    917922.73448                  20978919.6714
        51.5004         43.2504
  20867041.9974     993438.40249    766825.48648                  20867038.4874
        52.7504         43.2504
  21125973.5914     206297.00849    159461.65748                  21125969.6714
        52.7504         43.2504
 04  7  7 16 10 30.0010000  0  7G 3G 6G14G15G18G21G22
  22851059.4674    -607295.80549   -468727.51447                  22851058.8104
        47.0004         33.5004
  23931847.5254    2841717.23849   2194381.41146                  23931848.1274
        41.5004         25.0004
  23171384.0194   -1501431.62949  -1159396.82647                  23171382.7204
        45.2504         30.5004
  21210432.2664    -519033.85249   -400837.79648                  21210430.1094
        50.7504         40.7504
  20982771.8834    1209511.80949    933685.67248                  20982768.9814
        52.0004         43.0004
  20870322.6324    1010677.41449    780258.47148                  20870319.0924
        52.7504         43.0004
  21126732.9384     210287.08249    162570.80048                  21126728.6254
        53.0004         43.5004
 04  7  7 16 10 40.0010000  0  7G 3G 6G14G15G18G21G22
  22849365.3194    -616198.53949   -475664.71047                  22849364.2054
        46.7504         33.7504
  23940726.5564    2888377.44949   2230739.97646                  23940727.1964
        42.0004         25.0004
  23166730.4704   -1525887.02049  -1178452.97247                  23166729.3774
        45.2504         31.2504
  21208838.2394    -527410.55949   -407365.09848                  21208835.7994
        51.2504         40.7504
  20986624.8724    1229760.42249    949463.80248                  20986621.7684
        51.5004         43.7504
  20873609.1324    1027946.97349    793715.27248                  20873605.4184
        52.5004         43.0004
  21127497.1034     214303.26649    165700.30548                  21127492.8514
        53.0004         43.5004
 04  7  7 16 10 50.0010000  0  7G 3G 6G14G15G18G21G22
  22847679.3974    -625057.88749   -482568.10247                  22847678.7364
        47.5004         34.2504
  23949606.1354    2935040.60549   2267100.84746                  23949606.3434
        41.5004         22.2504
  23162079.6814   -1550326.23449  -1197496.49847                  23162078.4804
        45.2504         31.5004
  21207247.0384    -535774.28549   -413882.28448                  21207245.1984
        52.0004         41.5004
  20990481.6954    1250026.94549    965255.89048                  20990478.2324
        51.7504         44.0004
  20876900.7894    1045245.41449    807194.56648                  20876897.5374
        52.0004         43.5004
  21128266.5364     218343.82449    168848.78248                  21128261.9494
        53.2504         44.2504
 04  7  7 16 11  0.0010000  0  7G 3G 6G14G15G18G21G22
  22846001.6434    -633876.32849   -489439.59947                  22846001.3134
        47.2504         34.0004
  23958486.1214    2981704.16449   2303462.01946                  23958486.6104
        40.5004         22.7504
  23157431.7554   -1574751.67249  -1216529.31547                  23157430.9714
        45.7504         31.7504
  21205656.8184    -544127.44149   -420391.22948                  21205655.2084
        51.2504         41.5004
  20994341.1694    1270308.74249    981059.88348                  20994338.3724
        51.5004         43.5004
  20880197.2614    1062570.25449    820694.43248                  20880194.0224
        52.0004         43.0004
  21129039.5024     222406.30949    172014.35648                  21129035.0284
        52.7504         43.5004
 04  7  7 16 11 10.0010000  0  7G 3G 6G14G15G18G21G22
  22844331.1014    -642653.89549   -496279.27847                  22844330.6394
        47.0004         33.2504
  23967366.5754    3028367.78549   2339823.25847                  23967366.4584
        41.7504         25.7504
  23152786.5624   -1599163.23449  -1235551.31447                  23152784.8074
        44.7504         30.7504
  21204069.6844    -552470.03949   -426891.95948                  21204067.4444
        51.5004         41.5004
  20998203.4464    1290605.75049    996875.73248                  20998200.4144
        52.0004         43.0004
  20883499.4224    1079921.46149    834214.84248                  20883496.1964
        52.7504         43.2504
  21129816.4704     226490.64149    175196.95248                  21129812.1354
        53.0004         43.2504
 04  7  7 16 11 20.0010000  0  7G 3G 6G14G15G18G21G22
  22842669.0604    -651389.10949   -503085.94347                  22842668.3834
        47.0004         33.5004
  23976246.2234    3075032.90249   2376185.61246                  23976247.2434
        42.0004         25.2504
  23148144.9964   -1623559.55149  -1254561.43247                  23148142.4374
        46.0004         31.0004
  21202484.3994    -560800.76649   -433383.43648                  21202481.9614
        52.0004         41.0004
  21002068.7554    1310919.28549   1012704.44948                  21002066.0364
        52.0004         43.2504
  20886806.7814    1097300.56649    847756.99948                  20886803.7704
        53.0004         42.7504
  21130598.0344     230598.09849    178397.57348                  21130594.0934
        52.7504         43.5004
 04  7  7 16 11 30.0010000  0  7G 3G 6G14G15G18G21G22
  22841014.2994    -660083.55949   -509860.83147                  22841014.1234
        46.7504         33.2504
  23985127.0584    3121697.68249   2412547.72747                  23985127.0944
        42.7504         26.2504
  23143504.4104   -1647942.14849  -1273560.85347                  23143502.1014
        46.5004         30.2504
  21200900.7504    -569121.11749   -439866.80848                  21200899.0594
        51.5004         40.5004
  21005937.1964    1331247.58249   1028544.67648                  21005934.4904
        51.5004         43.0004
  20890118.9884    1114705.72349    861319.44248                  20890115.4744
        52.5004         42.7504
  21131383.8764     234727.00049    181614.90248                  21131379.8334
        53.0004         43.0004
 04  7  7 16 11 40.0010000  0  7G 3G 6G14G15G18G21G22
  22839367.2154    -668737.28149   -516603.99347                  22839367.1054
        48.0004         33.0004
  23994006.7344    3168361.97349   2448909.47347                  23994007.8374
        42.2504         26.2504
  23138867.1304   -1672311.02749  -1292549.59647                  23138864.8054
        46.5004         31.7504
  21199319.7894    -577431.13349   -446342.15548                  21199317.7014
        51.0004         41.0004
  21009808.4364    1351590.46549   1044396.27448                  21009805.6344
        51.0004         43.5004
  20893435.6534    1132136.85949    874902.14848                  20893432.5544
        51.7504         43.0004
  21132173.5374     238877.22749    184848.84948                  21132169.3564
        52.5004         43.5004
 04  7  7 16 11 50.0010000  0  8G 3G 6G14G15G18G21G22G 9
  22837727.5004    -677354.30949   -523318.54547                  22837727.0204
        49.0004         33.7504
  24002885.0464    3215021.63349   2485267.59246                  24002886.1394
        41.5004         25.5004
  23134231.9664   -1696670.26249  -1311530.81247                  23134229.4954
        46.7504         31.0004
  21197739.4754    -585734.97349   -452812.67048                  21197737.2624
        52.0004         41.5004
  21013681.4674    1371943.79349   1060256.01348                  21013678.9504
        51.0004         43.0004
  20896756.8224    1149590.01649    888501.99048                  20896753.3554
        51.7504         42.7504
  21132966.6764     243044.63749    188096.17748                  21132962.2664
        53.0004         43.5004
  24145607.6074      -6471.70358
        32.2504
 04  7  7 16 12  0.0010000  0  8G 3G 6G14G15G18G21G22G 9
  22836095.7664    -685931.48449   -530002.05547                  22836095.3244
        48.2504         34.0004
  24011764.4674    3261679.27049   2521624.15446                  24011764.8834
        41.0004         25.0004
  23129598.3094   -1721016.61749  -1330501.99347                  23129596.7744
        46.5004         31.5004
  21196161.2124    -594029.45349   -459275.88648                  21196159.2074
        51.2504         42.0004
  21017557.1314    1392310.58649   1076126.23848                  21017554.4434
        51.0004         43.7504
  20900082.7634    1167068.16049    902121.32548                  20900079.5194
        52.2504         44.0004
  21133763.2294     247232.18049    191359.20648                  21133758.8324
        52.7504         43.5004
  24143744.6224     -16257.71148
        32.0004
 04  7  7 16 12 10.0010000  0  8G 3G 6G14G15G18G21G22G 9
  22834471.0914    -694468.67649   -536654.41047                  22834470.4784
        47.7504         34.0004
  24020642.0764    3308335.25449   2557979.43946                  24020642.9964
        41.7504         25.5004
  23124968.1734   -1745349.93049  -1349463.00347                  23124966.2994
        46.2504         31.2504
  21194584.6994    -602314.38749   -465731.67948                  21194582.3384
        51.2504         41.2504
  21021435.2474    1412691.00449   1092007.07548                  21021432.2914
        52.0004         43.5004
  20903413.8824    1184571.47749    915760.27348                  20903410.0824
        52.0004         43.5004
  21134564.1074     251440.03949    194638.06248                  21134560.0624
        52.7504         43.0004
  24141883.8014     -26021.02748
        31.2504
 04  7  7 16 12 20.0010000  0  8G 3G 6G14G15G18G21G22G 9
  22832853.8124    -702967.96949   -543277.22947                  22832852.5144
        48.7504         33.5004
  24029520.0474    3354986.96549   2594331.35846                  24029520.4874
        41.7504         25.5004
  23120339.9274   -1769672.23849  -1368415.45547                  23120337.7804
        46.7504         32.0004
  21193009.3584    -610591.89549   -472181.68548                  21193007.5644
        51.5004         41.0004
  21025315.6744    1433082.71949   1107896.72648                  21025312.9894
        51.0004         43.0004
  20906749.1634    1202097.91449    929417.21648                  20906746.1124
        52.7504         42.7504
  21135368.0974     255665.88749    197930.93048                  21135363.7394
        53.2504         43.0004
  24140030.1414     -35763.62157
        27.5004
 04  7  7 16 12 30.0010000  0  7G 3G 6G14G15G18G21G22
  22831243.1524    -711431.29349   -549872.02747                  22831242.0424
        48.2504         33.2504
  24038396.4934    3401632.80549   2630678.71446                  24038396.5264
        41.5004         25.0004
  23115713.5324   -1793985.44149  -1387360.79647                  23115711.8654
        46.7504         32.2504
  21191435.0124    -618863.85949   -478627.37048                  21191432.7594
        51.5004         41.2504
  21029197.8094    1453483.82849   1123793.68848                  21029195.1884
        51.7504         42.7504
  20910088.1494    1219645.50449    943090.66248                  20910084.8334
        52.2504         42.7504
  21136175.5724     259907.84849    201236.35248                  21136171.2174
        53.0004         43.5004
 04  7  7 16 12 40.0010000  0  7G 3G 6G14G15G18G21G22
  22829639.4914    -719856.87949   -556437.43547                  22829638.2874
        48.0004         33.0004
  24047272.4344    3448274.19549   2667022.60646                  24047271.9694
        42.2504         22.5004
  23111088.4464   -1818287.71949  -1406297.64747                  23111086.9224
        47.2504         31.7504
  21189862.4914    -627128.47349   -485067.31948                  21189860.5794
        52.0004         40.7504
  21033082.3554    1473895.96549   1139699.22648                  21033079.3754
        51.5004         43.0004
  20913431.6084    1237215.98449    956781.93848                  20913428.2064
        52.7504         42.5004
  21136986.1684     264167.57849    204555.61448                  21136981.5704
        52.5004         43.0004
 04  7  7 16 12 50.0010000  0  8G 3G 6G14G15G18G21G22G 9
  22828042.8884    -728248.11349   -562976.04547                  22828041.1634
        48.0004         33.5004
  24056145.7154    3494907.63349   2703360.34646                  24056145.5624
        42.0004         22.7504
  23106465.9324   -1842582.43749  -1425228.60347                  23106463.8604
        46.0004         32.0004
  21188290.5084    -635389.22349   -491504.28348                  21188288.1444
        52.0004         42.0004
  21036968.2894    1494315.55949   1155610.59548                  21036965.0024
        51.5004         43.0004
  20916779.0344    1254805.96149    970488.40448                  20916775.2144
        53.0004         43.0004
  21137799.3714     268441.55549    207885.98848                  21137794.3844
        52.2504         43.7504
  24134493.4364     -64876.50058
        32.0004
 04  7  7 16 13  0.0010000  0  7G 3G 6G14G15G18G21G22
  22826452.7604    -736604.35549   -569487.39347                  22826451.3084
        47.5004         32.2504
  24065018.9944    3541533.39149   2739692.06146                  24065018.3144
        41.7504         22.7504
  23101844.2364   -1866868.96949  -1444153.16347                  23101842.3034
        46.0004         32.5004
  21186719.3834    -643645.50049   -497937.71348                  21186717.5834
        52.0004         41.0004
  21040855.0574    1514743.11349   1171528.17648                  21040852.5714
        52.2504         43.0004
  20920130.2224    1272415.96549    984210.48348                  20920126.3294
        52.7504         42.7504
  21138615.4174     272730.29349    211227.85948                  21138610.8784
        53.0004         42.7504
 04  7  7 16 13 10.0010000  0  8G 3G 6G14G15G18G21G22G 9
  22824868.6944    -744927.81249   -575973.22547                  22824867.8054
        47.2504         33.0004
  24073889.2394    3588149.25049   2776016.02046                  24073889.0124
        42.2504         24.5004
  23097223.7884   -1891149.50449  -1463073.05447                  23097222.0864
        45.5004         32.2504
  21185148.6974    -651899.47749   -504369.39148                  21185146.3974
        51.5004         41.5004
  21044743.4004    1535176.30549   1187450.13348                  21044740.7824
        50.5004         43.7504
  20923484.3354    1290043.79749    997946.44048                  20923480.7714
        52.5004         43.7504
  21139433.9574     277031.50849    214579.45548                  21139429.4824
        53.2504         43.5004
  24130813.9654     -84196.43058
        28.5004
 04  7  7 16 13 20.0010000  0  7G 3G 6G14G15G18G21G22
  22823291.6764    -753216.99249   -582432.33147                  22823290.5504
        48.5004         33.7504
  24082758.1024    3634756.50449   2812333.31346                  24082758.0384
        42.0004         24.5004
  23092604.7724   -1915422.39849  -1481986.99447                  23092603.4794
        45.5004         32.7504
  21183578.7894    -660149.64849   -510798.09848                  21183576.9364
        51.5004         41.5004
  21048633.1584    1555616.59049   1203377.61148                  21048630.7654
        51.5004         43.5004
  20926842.6574    1307690.87949   1011697.41248                  20926839.2334
        51.7504         43.7504
  21140255.1534     281346.62149    217941.88148                  21140250.4634
        53.0004         43.0004
 04  7  7 16 13 30.0010000  0  7G 3G 6G14G15G18G21G22
  22821720.1924    -761473.55149   -588866.02047                  22821719.3034
        47.5004         33.7504
  24091626.0684    3681353.42249   2848642.56746                  24091625.5504
        41.2504         22.2504
  23087986.2864   -1939689.48849  -1500896.39047                  23087985.4214
        45.2504         32.0004
  21182009.1464    -668397.73049   -517225.16148                  21182007.2514
        51.2504         41.7504
  21052523.6954    1576062.09049   1219309.17048                  21052520.6074
        51.0004         43.0004
  20930204.0024    1325355.52049   1025462.05648                  20930200.5304
        51.7504         43.0004
  21141078.7424     285673.80549    221313.71848                  21141073.8734
        52.5004         42.5004
 04  7  7 16 13 40.0010000  0  8G 3G 6G14G15G18G21G22G 9
  22820155.3724    -769697.85249   -595274.58347                  22820153.6014
        47.2504         33.0004
  24100490.0964    3727939.33249   2884943.25246                  24100490.5454
        40.5004         21.0004
  23083369.9884   -1963951.01249  -1519801.46247                  23083368.1314
        46.0004         32.5004
  21180440.2394    -676644.09449   -523650.90148                  21180437.8034
        52.5004         41.2504
  21056415.0804    1596512.34449   1235244.43348                  21056412.6194
        51.5004         42.5004
  20933568.7914    1343037.23449   1039240.01748                  20933565.4934
        52.7504         43.0004
  21141904.0884     290012.57849    224694.58848                  21141899.6384
        53.0004         42.5004
  24125322.8594    -113055.60958
        32.5004
 04  7  7 16 13 50.0010000  0  8G 3G 6G14G15G18G21G22G 9
  22818596.0764    -777890.39149   -601658.35247                  22818594.5994
        48.0004         32.7504
  24109353.4934    3774513.51249   2921234.77946                  24109353.7884
        41.0004         22.7504
  23078754.0374   -1988207.41849  -1538702.55047                  23078752.3694
        46.0004         31.5004
  21178870.8704    -684889.26249   -530075.70148                  21178868.5584
        51.5004         40.7504
  21060307.7204    1616966.78549   1251182.95448                  21060305.1134
        51.5004         43.0004
  20936936.7954    1360735.53549   1053030.88548                  20936933.5884
        52.5004         42.2504
  21142731.8874     294362.37949    228084.04348                  21142726.9294
        52.5004         42.0004
  24123499.3084    -122644.15248
        34.5004
 04  7  7 16 14  0.0010000  0  8G 3G 6G14G15G18G21G22G 9
  22817043.5134    -786049.43749   -608016.05047                  22817042.2654
        47.7504         32.2504
  24118213.9614    3821077.80549   2957518.59646                  24118214.6854
        39.0004         22.5004
  23074139.4014   -2012456.92249  -1557598.26047                  23074137.8404
        46.0004         32.5004
  21177302.6874    -693131.41849   -536498.15948                  21177300.5344
        52.0004         41.5004
  21064201.3174    1637427.07449   1267126.03648                  21064198.4554
        51.2504         43.0004
  20940307.8444    1378452.24649   1066836.10948                  20940304.6524
        52.0004         43.0004
  21143561.9544     298724.96149    231483.44948                  21143557.3414
        52.7504         43.0004
  24121677.8224    -132215.85248    -98138.74656                  24121677.5394
        34.2504         14.0004
 04  7  7 16 14 10.0010000  0  8G 3G 6G14G15G18G21G22G 9
  22815496.9104    -794176.72749   -614349.00647                  22815495.9104
        47.2504         33.0004
  24127072.4794    3867630.24649   2993793.12746                  24127073.3914
        40.2504         23.0004
  23069526.3274   -2036701.17249  -1576489.89247                  23069524.4864
        45.2504         31.0004
  21175734.4684    -701372.32849   -542919.64248                  21175732.6614
        52.0004         41.5004
  21068095.5654    1657891.32849   1283072.20848                  21068092.4864
        50.5004         43.0004
  20943682.5404    1396185.52049   1080654.24748                  20943679.4004
        51.7504         43.0004
  21144394.2224     303098.42649    234891.35348                  21144389.4544
        53.0004         42.7504
  24119859.2854    -141772.52748   -105585.50446                  24119858.6564
        35.5004         16.2504
 04  7  7 16 14 20.0010000  0  8G 3G 6G14G15G18G21G22G 9
  22813955.8774    -802273.71149   -620658.34547                  22813954.9554
        47.5004         33.7504
  24135928.7584    3914168.93849   3030056.98646                  24135929.3394
        41.5004         22.5004
  23064913.4014   -2060941.75449  -1595378.65947                  23064911.4474
        46.0004         32.2504
  21174166.1054    -709613.49249   -549341.33148                  21174164.0254
        52.0004         42.0004
  21071990.3084    1678357.96549   1299020.23048                  21071987.5824
        51.5004         43.0004
  20947060.1744    1413933.72349   1094484.00748                  20947056.6024
        52.7504         43.5004
  21145228.3424     307481.15649    238306.46148                  21145223.4854
        52.7504         43.2504
  24118043.7364    -151315.55549   -113021.60146                  24118043.1414
        37.0004         18.5004
 04  7  7 16 14 30.0010000  0  8G 3G 6G14G15G18G21G22G 9
  22812421.7974    -810336.42249   -626940.97347                  22812421.1384
        48.5004         33.5004
  24144783.5664    3960697.85549   3066313.24846                  24144783.8564
        41.7504         24.7504
  23060301.7864   -2085174.55149  -1614261.34747                  23060300.2734
        45.5004         32.7504
  21172598.5024    -717850.93449   -555760.10648                  21172596.5334
        52.0004         42.0004
  21075886.3384    1698830.85249   1314973.13148                  21075883.7884
        51.7504         43.2504
  20950441.0904    1431700.91049   1108328.55748                  20950437.8214
        52.7504         43.5004
  21146064.7034     311877.07849    241731.85348                  21146060.2774
        52.2504         43.2504
  24116230.3974    -160840.79749   -120443.90846                  24116230.0914
        37.7504         20.0004
 04  7  7 16 14 40.0010000  0  8G 3G 6G14G15G18G21G22G 9
  22810893.0554    -818368.85949   -633200.01847                  22810892.2094
        48.0004         33.0004
  24153635.1064    4007213.10249   3102558.88646                  24153635.5734
        42.5004         25.0004
  23055691.2194   -2109403.59049  -1633141.11447                  23055689.3334
        45.7504         32.7504
  21171030.9544    -726088.60949   -562179.08048                  21171028.8074
        51.5004         41.7504
  21079782.4464    1719305.87949   1330927.68548                  21079778.9484
        51.5004         42.7504
  20953824.8104    1449483.20349   1122184.88148                  20953821.6814
        53.0004         43.5004
  21146903.0604     316282.06649    245164.31848                  21146898.5724
        52.7504         43.0004
  24114420.3964    -170352.19148   -127855.33446                  24114420.4064
        35.0004         20.5004
 04  7  7 16 14 50.0010000  0  8G 3G 6G14G15G18G21G22G 9
  22809371.1014    -826366.28549   -639431.78947                  22809370.6654
        46.7504         33.0004
  24162484.1484    4053718.89549   3138797.06946                  24162485.1184
        42.2504         24.2504
  23051081.6554   -2133624.11749  -1652014.22747                  23051080.3784
        45.7504         32.5004
  21169464.3054    -734321.87549   -568594.60748                  21169462.1054
        51.5004         42.0004
  21083680.0484    1739787.61749   1346887.47548                  21083676.7334
        51.2504         42.5004
  20957212.5524    1467285.08649   1136056.47048                  20957209.0274
        52.2504         43.5004
  21147743.9974     320700.79349    248607.47948                  21147738.9434
        52.5004         42.5004
  24112613.9304    -179845.08249   -135252.40246                  24112613.3934
        36.0004         18.2504
 04  7  7 16 15  0.0010000  0  8G 3G 6G14G15G18G21G22G 9
  22807856.4604    -834328.66049   -645636.24447                  22807855.2084
        46.7504         33.2504
  24171333.5904    4100215.28149   3175027.95746                  24171333.5104
        42.0004         24.2504
  23046474.6394   -2157835.98449  -1670880.61747                  23046473.6834
        45.5004         32.0004
  21167898.2564    -742550.63749   -575006.62948                  21167896.2734
        52.2504         41.7504
  21087579.0234    1760276.04349   1362852.47848                  21087576.0444
        51.2504         43.0004
  20960603.7544    1485106.59049   1149943.34148                  20960599.9874
        53.0004         43.0004
  21148587.1104     325133.22349    252061.30848                  21148582.6204
        52.5004         42.7504
  24110811.7634    -189319.34448   -142634.92346                  24110810.3364
        34.7504         18.2504
 04  7  7 16 15 10.0010000  0  8G 3G 6G14G15G18G21G22G 9
  22806347.6724    -842258.46149   -651815.31247                  22806346.3264
        47.5004         33.5004
  24180178.6044    4146699.62549   3211249.51946                  24180179.1624
        42.5004         23.5004
  23041867.8934   -2182041.72349  -1689742.22547                  23041866.6774
        45.2504         32.2504
  21166332.6554    -750777.33249   -581417.02948                  21166330.5394
        51.7504         41.5004
  21091478.5034    1780768.59449   1378820.69748                  21091475.5354
        51.0004         43.2504
  20963998.1784    1502945.16049   1163843.52748                  20963994.3324
        53.0004         43.0004
  21149433.1674     329576.77349    255523.81648                  21149428.4644
        52.0004         43.0004
  24109010.9544    -198777.38749   -150004.82046                  24109010.3504
        36.0004         17.7504
 04  7  7 16 15 20.0010000  0  8G 3G 6G14G15G18G21G22G 9
  22804844.6164    -850156.20749   -657969.39147                  22804843.1274
        48.0004         33.2504
  24189021.8364    4193171.30949   3247461.15446                  24189022.3134
        42.0004         25.5004
  23037263.5804   -2206241.70349  -1708599.34047                  23037262.2394
        45.5004         32.7504
  21164767.5664    -759002.46549   -587826.21948                  21164765.7774
        52.0004         41.2504
  21095378.8064    1801264.62149   1394791.62748                  21095376.0324
        51.0004         42.2504
  20967396.0654    1520800.37149   1177756.66748                  20967392.5984
        52.2504         43.0004
  21150280.3804     334030.84049    258994.51848                  21150275.6604
        52.5004         42.2504
  24107214.3804    -208219.63349   -157362.43846                  24107213.6834
        37.2504         19.5004
 04  7  7 16 15 30.0010000  0  8G 3G 6G14G15G18G21G22G 9
  22803348.3234    -858019.21549   -664096.39847                  22803346.6764
        47.7504         33.2504
  24197863.1004    4239632.50849   3283664.62746                  24197863.7764
        42.2504         25.2504
  23032660.2634   -2230433.24249  -1727449.87647                  23032658.5204
        45.2504         31.0004
  21163203.4344    -767223.35549   -594232.11948                  21163200.9594
        52.0004         42.0004
  21099279.8874    1821766.79749   1410767.35248                  21099276.9424
        51.0004         43.2504
  20970797.7304    1538674.93049   1191684.89548                  20970793.7844
        53.0004         43.0004
  21151130.5884     338497.94949    262475.38848                  21151125.4864
        52.7504         43.0004
  24105421.1134    -217643.36349   -164705.61346                  24105420.0084
        37.5004         21.0004
 04  7  7 16 15 40.0010000  0  8G 3G 6G14G15G18G21G22G 9
  22801858.7714    -865845.46949   -670194.77547                  22801857.2464
        48.0004         33.2504
  24206703.4334    4286085.51249   3319861.74347                  24206703.7104
        42.5004         27.0004
  23028057.9844   -2254614.35549  -1746292.30147                  23028056.9214
        46.2504         32.2504
  21161639.7524    -775438.08649   -600633.19248                  21161637.9814
        52.2504         42.2504
  21103183.0374    1842276.93449   1426749.26248                  21103180.0624
        52.2504         43.0004
  20974202.9914    1556570.63349   1205629.58048                  20974199.3844
        52.2504         43.7504
  21151983.4544     342980.00049    265967.88848                  21151978.7224
        52.2504         42.7504
  24103630.8924    -227046.56249   -172032.78846                  24103631.0064
        37.0004         20.0004
 04  7  7 16 15 50.0010000  0  8G 3G 6G14G15G18G21G22G 9
  22800375.4654    -873642.29349   -676270.22347                  22800373.7724
        48.0004         33.7504
  24215539.5134    4332522.78949   3356046.55946                  24215540.8944
        41.0004         25.5004
  23023457.0264   -2278792.27749  -1765132.22947                  23023455.9464
        46.5004         31.7504
  21160076.4404    -783653.93449   -607035.14748                  21160075.0024
        52.0004         42.5004
  21107086.1184    1862787.59849   1442731.60648                  21107083.1614
        52.0004         43.0004
  20977611.2374    1574480.19549   1219585.08848                  20977607.1254
        53.0004         43.5004
  21152837.7304     347469.62949    269466.29748                  21152833.0994
        52.5004         42.5004
  24101845.0534    -236436.39149   -179349.59946                  24101844.5044
        38.5004         20.5004
